sat.trackr.live / text

‹ back to catalog

STARLINK-31650

NORAD 59512 · 2024-073B

PAYLOAD ACTIVE UNKNOWN

§ Identity

Operator
Country
US
Launch date
2024-04-17
Launch site
AFETR
Launch vehicle
Mass (kg)
RCS (m²)

Purposes: comms

External: N2YO · Heavens-Above · Gunter

§ Orbital elements

Epoch: 2026-09-21T09:15:24.344352Z

Period
94.27 min
Inclination
43.0007°
Eccentricity
0.0001052
Mean motion
15.27577425 rev/d
Perigee alt
482.3 km
Apogee alt
483.8 km
Semi-major
6,861.2 km
B*
1.7795e-5
RAAN
292.9305°
Arg perigee
279.5626°
Mean anomaly
80.5107°
Rev number
13,610

§ Raw data

STARLINK-316501 59512U 24073B   26264.38569843  .00000228  00000+0  17795-4 0  99982 59512  43.0007 292.9305 0001052 279.5626  80.5107 15.27577425136100

JSON: /api/v1/satellites/59512 · /tle

For live sub-satellite position, see the globe view (requires WebGL).

§ Visibility from observer

Set your observer location to see the next 7 days of passes ≥ 10°. The values pass through the URL so the page stays shareable.

No JS? Fill the form by hand. The geolocation button needs JavaScript.